Weather History for Jefferson City, MO

Change the Weather History Date:

Thursday, April 18, 2013

  Actual Average Record
Temperature  
Mean Temperature 59 °F -  
Max Temperature 75 °F 68 °F 91 °F (2006)
Min Temperature 39 °F 43 °F 25 °F (1961)
Degree Days  
Heating Degree Days 6    
Growing Degree Days 9 (Base 50)    
Moisture  
Dew Point 52 °F    
Average Humidity 82    
Maximum Humidity 94    
Minimum Humidity 62    
Precipitation  
Precipitation 2.19 in - - ()
Sea Level Pressure  
Sea Level Pressure 29.63 in    
Wind  
Wind Speed 11 mph (WSW)    
Max Wind Speed 25 mph    
Max Gust Speed 40 mph    
Visibility 6 miles    
Events Rain , Thunderstorm    
Averages and records for this station are not official NWS values.
T = Trace of Precipitation, MM = Missing Value Source: NWS Daily Summary

Daily Weather History Graph

Daily Weather History Graph

Search for Another Location

Airport:

Trip Planner

Search our weather history database for the weather conditions in past years. The results will help you decide how hot, cold, wet, or windy it might be!

Date:

Astronomy

Apr. 18, 2013 Rise Set
Actual Time 6:27 AM CDT 7:48 PM CDT
Civil Twilight 6:00 AM CDT 8:16 PM CDT
Nautical Twilight 5:27 AM CDT 8:49 PM CDT
Astronomical Twilight 4:52 AM CDT 9:24 PM CDT
Moon 12:40 PM CDT (4/18) 2:02 AM CDT (4/18)
Length of Visible Light 14h 15m
Length of Day
13h 20m
First Quarter, 52% of the Moon is Illuminated
Apr 18
First Quarter
Apr 25
Full
May 2
Last Quarter
May 9
New
May 17
First Quarter

Hourly Weather History & Observations

Time (CDT) Temp. Windchill Dew Point Humidity Pressure Visibility Wind Dir Wind Speed Gust Speed Precip Events Conditions
12:53 AM 77.0 °F - 63.0 °F 62% 29.59 in 10.0 mi South 12.7 mph - N/A   Overcast
1:53 AM 75.9 °F - 64.0 °F 67% 29.55 in 10.0 mi South 13.8 mph 20.7 mph N/A   Mostly Cloudy
2:06 AM 75.2 °F - 64.4 °F 69% 29.57 in 10.0 mi South 13.8 mph - N/A Thunderstorm Mostly Cloudy
2:25 AM 73.4 °F - 64.4 °F 73% 29.55 in 5.0 mi SSE 15.0 mph 23.0 mph 0.05 in Rain , Thunderstorm Thunderstorms and Rain
2:46 AM 73.4 °F - 64.4 °F 73% 29.54 in 10.0 mi South 9.2 mph - 0.06 in   Overcast
2:53 AM 73.9 °F - 64.9 °F 73% 29.52 in 10.0 mi SSW 11.5 mph 19.6 mph 0.06 in Thunderstorm Thunderstorm
3:01 AM 64.4 °F - 60.8 °F 88% 29.60 in 9.0 mi WNW 17.3 mph 40.3 mph 0.01 in Rain , Thunderstorm Light Thunderstorms and Rain
3:13 AM 62.6 °F - 57.2 °F 82% 29.59 in 10.0 mi WNW 13.8 mph 24.2 mph 0.01 in Rain , Thunderstorm Light Rain
3:38 AM 60.8 °F - 59.0 °F 94% 29.57 in 1.8 mi NNW 5.8 mph - 0.28 in Rain , Thunderstorm Heavy Rain
3:44 AM 60.8 °F - 59.0 °F 94% 29.57 in 3.0 mi NNW 4.6 mph - 0.29 in Rain , Thunderstorm Light Thunderstorms and Rain
3:53 AM 61.0 °F - 59.0 °F 93% 29.54 in 2.5 mi Calm Calm - 0.38 in Rain , Thunderstorm Heavy Thunderstorms and Rain
4:04 AM 60.8 °F - 57.2 °F 88% 29.57 in 1.8 mi Calm Calm - 0.14 in Rain , Thunderstorm Heavy Thunderstorms and Rain
4:14 AM 60.8 °F - 59.0 °F 94% 29.59 in 0.8 mi Calm Calm - 0.41 in Rain , Thunderstorm Heavy Thunderstorms and Rain
4:23 AM 60.8 °F - 59.0 °F 94% 29.58 in 0.8 mi Variable 3.5 mph - 0.65 in Rain , Thunderstorm Heavy Thunderstorms and Rain
4:31 AM 60.8 °F - 59.0 °F 94% 29.62 in 1.5 mi Variable 6.9 mph - 0.72 in Rain , Thunderstorm Thunderstorms and Rain
4:49 AM 60.8 °F - 59.0 °F 94% 29.60 in 2.0 mi WNW 3.5 mph - 0.96 in Rain , Thunderstorm Thunderstorms and Rain
4:53 AM 60.1 °F - 57.9 °F 93% 29.58 in 4.0 mi Variable 3.5 mph - 0.96 in Rain , Thunderstorm Thunderstorms and Rain
5:06 AM 60.8 °F - 59.0 °F 94% 29.62 in 5.0 mi West 6.9 mph - 0.02 in Rain Light Rain
5:13 AM 60.8 °F - 59.0 °F 94% 29.61 in 5.0 mi WNW 8.1 mph - 0.04 in Rain , Thunderstorm Light Rain
5:30 AM 60.8 °F - 57.2 °F 88% 29.63 in 4.0 mi West 4.6 mph - 0.11 in Rain Rain
5:35 AM 60.8 °F - 57.2 °F 88% 29.63 in 4.0 mi SW 4.6 mph - 0.12 in Rain , Thunderstorm Rain
5:53 AM 60.1 °F - 57.9 °F 93% 29.58 in 3.0 mi Calm Calm - 0.20 in Rain Rain
6:05 AM 60.8 °F - 57.2 °F 88% 29.59 in 4.0 mi ENE 4.6 mph - 0.05 in Rain , Thunderstorm Rain
6:32 AM 60.8 °F - 57.2 °F 88% 29.60 in 6.0 mi SE 5.8 mph - 0.13 in Rain Rain
6:53 AM 60.1 °F - 57.9 °F 93% 29.56 in 6.0 mi ESE 6.9 mph - 0.19 in Rain , Thunderstorm Thunderstorms and Rain
7:02 AM 60.8 °F - 57.2 °F 88% 29.60 in 6.0 mi ESE 9.2 mph - 0.02 in Rain Light Rain
7:53 AM 60.1 °F - 57.9 °F 93% 29.55 in 10.0 mi ESE 10.4 mph - 0.09 in Rain Light Rain
8:50 AM 62.6 °F - 59.0 °F 88% 29.59 in 2.5 mi SE 10.4 mph - 0.17 in Rain Heavy Rain
8:53 AM 62.1 °F - 59.0 °F 90% 29.55 in 3.0 mi SE 9.2 mph - 0.19 in Rain Rain
9:10 AM 62.6 °F - 60.8 °F 94% 29.58 in 2.0 mi SSE 9.2 mph - 0.07 in Rain Heavy Rain
9:13 AM 62.6 °F - 60.8 °F 94% 29.57 in 3.0 mi SE 9.2 mph - 0.08 in Rain Rain
9:53 AM 64.0 °F - 61.0 °F 90% 29.48 in 10.0 mi SE 12.7 mph - 0.11 in Rain Light Rain
10:53 AM 66.0 °F - 62.1 °F 87% 29.49 in 10.0 mi South 9.2 mph - 0.00 in   Overcast
11:37 AM 53.6 °F - 51.8 °F 94% 29.60 in 3.0 mi West 25.3 mph 38.0 mph 0.00 in Rain Light Rain
11:40 AM 53.6 °F - 50.0 °F 88% 29.60 in 2.0 mi West 21.9 mph 33.4 mph 0.00 in Rain Light Rain
11:53 AM 51.1 °F - 46.9 °F 86% 29.58 in 2.0 mi West 23.0 mph 28.8 mph 0.00 in Rain Light Rain
12:12 PM 50.0 °F - 46.4 °F 87% 29.65 in 5.0 mi West 19.6 mph 25.3 mph 0.00 in Rain Light Rain
12:53 PM 48.9 °F - 43.0 °F 80% 29.65 in 10.0 mi West 18.4 mph 26.5 mph 0.01 in   Overcast
1:53 PM 46.0 °F 39.3 °F 39.9 °F 79% 29.67 in 10.0 mi West 16.1 mph - 0.00 in   Overcast
2:53 PM 45.0 °F 37.9 °F 37.9 °F 76% 29.69 in 10.0 mi West 16.1 mph - N/A   Overcast
3:53 PM 45.0 °F 38.2 °F 37.0 °F 74% 29.71 in 10.0 mi West 15.0 mph - N/A   Overcast
4:53 PM 46.0 °F 38.8 °F 37.0 °F 71% 29.74 in 10.0 mi West 18.4 mph 25.3 mph N/A   Overcast
5:16 PM 46.4 °F 38.7 °F 35.6 °F 66% 29.77 in 10.0 mi West 20.7 mph 31.1 mph N/A   Overcast
5:53 PM 45.0 °F 36.9 °F 34.0 °F 65% 29.75 in 10.0 mi West 20.7 mph 33.4 mph N/A   Overcast
6:16 PM 44.6 °F 36.4 °F 33.8 °F 66% 29.79 in 10.0 mi West 20.7 mph 27.6 mph N/A   Overcast
6:53 PM 43.0 °F 34.0 °F 32.0 °F 65% 29.79 in 10.0 mi WNW 21.9 mph 27.6 mph N/A   Overcast
7:53 PM 42.1 °F 33.9 °F 32.0 °F 67% 29.81 in 10.0 mi WNW 17.3 mph 24.2 mph N/A   Overcast
8:53 PM 41.0 °F 33.5 °F 30.9 °F 67% 29.83 in 10.0 mi WNW 13.8 mph 24.2 mph N/A   Overcast
9:53 PM 41.0 °F 32.8 °F 30.0 °F 65% 29.84 in 10.0 mi WNW 16.1 mph - N/A   Overcast
10:53 PM 41.0 °F 31.6 °F 28.9 °F 62% 29.83 in 10.0 mi WNW 20.7 mph 28.8 mph N/A   Overcast
11:53 PM 39.9 °F 32.5 °F 28.9 °F 65% 29.83 in 10.0 mi West 12.7 mph 20.7 mph N/A   Overcast